星链-3682 (STARLINK-3682 )

导读

STARLINK-3682是美国SpaceX公司星链(Starlink)星座的一员,于2022年3月19日发射。它运行在近地轨道,目前飞行高度约548公里,质量约297kg,属于星链Group 4-16批次的组网卫星。作为低轨互联网卫星,它为全球偏远地区提供高速低延迟宽带服务,帮助填补传统网络基础设施覆盖不足的区域,支撑星链系统的全球网络服务。

Basic Information
目录编号:
52140
目录名称:
STARLINK-3682
国际标识:
2022-029BE
轨道中心:
EARTH
卫星名称:
星链-3682
卫星全名:
星链-3682 (STARLINK-3682 )
卫星状态:
在轨 (已飞行1551 天)
发射日期:
2022-03-19 UTC
国别 :
美国 (US)
星等 :
--
Orbit Information
数据来源 国际轨道数据 AOE轨道数据
星历时间 2026-06-17T12:59:48+0800
13小时前
查看轨道信息
2026-06-11T17:00:00+0800
6天前
查看轨道信息
半长轴 6917.893km 6917.901km
偏心率 0.000125 0.0001363
轨道倾角 53.160° 53.159°
近地点辐角 87.804° 79.494°
升交点赤经 342.266° 8.489°
平近点角 272.309° 258.511°
近地点 538.891km 538.821km
远地点 540.621km 540.707km
周期 95.438分钟 95.438分钟
每日圈数 15.088361 15.088335
Detailed Information
固有亮度:
5
最大亮度:
2.5
卫星平台:
Starlink v1.5
覆盖范围:
全球
运营商:
太空探索技术公司
运营商所在国:
美国
制造商(研发单位):
太空探索技术公司
制造商所在国:
美国
使用方式:
暂无
Satellite Introduction
星链(Starlink)计划是由太空探索技术公司(SpaceX)提出的一个巨型低轨卫星互联网星座项目,计划在2019年至2024年间在太空搭建由约1.2万颗卫星组成的“星链”网络,其中1584颗将部署在地球上空550千米处的近地轨道,并从2020年开始工作。该卫星仍在工作。
2D Orbit Map
3D Orbit Map
Orbit Altitude Analysis Chart
Orbit Inclination Analysis Chart
Orbit Comprehensive Analysis Chart
View Comprehensive Chart